Probability
11 11 9 8 7 7 7 9 9 8 7 7 6 4 2 1 1 1 1 0 0 0 0 0 0 0 0 0 0 0 0 0 0 0 0 1 2 2
10 8 7 8 8 7 7 9 11 11 10 9 6 4 2 2 3 4 3 2 0 0 0 0 0 0 0 0 0 0 0 1 1 1 0 0 1 1
9 8 7 9 11 10 9 11 13 13 12 9 7 5 4 4 6 6 5 3 1 0 0 0 0 0 0 0 0 0 0 1 2 1 0 0 0 0
13 12 11 12 15 15 13 13 14 13 11 9 6 5 5 7 8 8 6 4 3 1 0 0 0 0 0 0 0 0 0 1 1 1 0 0 0 0
18 17 14 15 17 17 15 14 13 12 10 8 6 6 6 9 10 9 7 5 4 2 1 0 0 0 0 0 0 0 0 0 0 0 0 0 0 0
19 17 14 12 13 13 12 13 13 12 10 9 8 9 10 11 11 10 8 7 5 3 2 1 1 1 1 0 0 0 0 0 0 0 0 0 0 0
16 14 10 8 8 8 7 9 12 13 12 13 13 13 14 14 12 10 9 9 7 5 4 4 4 3 2 1 0 0 0 0 0 0 0 0 0 0
13 11 7 5 5 5 4 5 7 10 11 13 15 14 14 15 13 10 9 10 8 7 7 7 7 6 4 2 1 0 0 0 0 0 0 0 0 0
11 9 6 4 5 6 5 3 4 5 7 10 12 13 13 15 13 10 9 10 10 10 10 8 7 7 5 3 1 0 0 0 0 0 0 0 0 0
8 7 5 4 4 6 7 7 7 8 7 7 9 11 12 13 12 11 11 11 10 12 11 10 8 7 6 4 2 0 0 0 0 0 0 0 0 0
5 5 5 5 3 4 7 10 12 12 10 8 8 8 9 10 10 11 12 12 11 11 12 12 10 9 9 8 5 2 0 0 0 0 0 0 0 0
4 4 4 4 3 2 6 11 13 12 11 10 9 8 8 9 9 12 14 14 12 11 13 14 12 11 11 10 7 5 2 1 0 0 0 0 0 0
4 3 3 3 2 1 3 8 9 9 10 11 11 11 12 14 14 15 16 16 14 11 12 14 12 11 10 9 7 6 4 3 1 0 0 0 0 0
4 4 3 2 1 0 1 2 3 5 8 11 12 14 17 18 18 17 17 16 14 11 11 12 12 11 10 7 6 4 4 4 2 1 1 1 1 1
4 3 2 1 0 0 0 0 1 4 8 10 11 13 15 16 16 16 15 14 12 10 10 11 11 10 9 7 5 3 3 3 4 3 3 3 2 2
4 4 2 1 1 1 1 2 3 5 7 9 10 11 12 12 13 13 13 12 11 9 9 10 10 8 7 5 4 4 4 4 5 6 5 4 3 3
4 4 4 3 2 3 4 4 4 4 5 7 8 9 9 10 10 11 12 12 11 10 10 10 9 8 6 5 5 6 6 6 6 6 6 4 3 3
2 3 3 3 3 3 4 4 3 3 3 5 6 8 8 9 9 9 10 11 11 11 11 11 9 7 6 6 7 7 7 7 6 6 5 4 3 2
0 1 1 2 1 2 3 3 3 3 3 4 6 7 7 7 6 6 7 8 9 10 10 10 9 8 7 7 7 6 6 6 5 4 4 3 2 1
0 0 0 0 0 1 2 2 2 1 1 3 4 5 5 4 4 4 4 5 6 7 7 8 8 7 7 7 7 5 3 3 3 4 3 3 2 1
0 0 0 0 0 0 1 1 1 0 0 1 2 3 3 3 3 3 3 3 4 4 4 4 4 4 5 6 6 5 2 1 2 3 3 3 2 1
0 0 0 0 0 0 0 0 0 0 0 0 0 1 1 2 3 3 3 2 2 2 1 1 1 2 4 4 4 3 1 0 0 1 1 2 1 1
0 0 0 0 0 0 0 0 0 0 0 0 0 0 0 1 3 3 2 1 1 0 0 0 1 3 3 3 2 1 1 0 0 0 0 1 1 0
Wind_Speed
1 2 2 1 1 1 2 2 2 2 1 2 1 2 1 2 3 2 3 6 5 5 4 4 4 4 4 4 4 3 3 3 3 3 3 2 2 2
0 0 1 1 1 1 1 1 2 2 1 1 1 2 1 2 4 2 4 7 6 5 5 4 4 4 4 3 3 3 3 2 2 3 3 3 2 2
1 1 1 1 1 1 1 1 1 1 1 1 1 2 2 1 2 2 3 3 4 6 6 5 4 4 3 3 3 3 3 2 2 2 2 2 2 2
1 1 1 1 1 1 1 1 1 1 2 2 1 2 2 2 2 1 2 2 3 7 6 6 5 4 4 3 3 3 3 2 2 2 3 2 2 2
1 1 1 1 1 1 1 1 2 2 2 2 2 1 1 2 2 2 2 1 2 6 7 6 5 4 4 4 3 2 2 1 1 2 2 2 2 2
1 0 0 1 1 2 2 1 1 2 2 2 2 2 2 2 2 2 2 2 1 2 3 4 5 5 5 4 3 2 1 1 1 1 2 2 1 1
1 1 1 2 3 1 1 1 2 2 2 2 2 2 2 2 2 2 2 2 2 1 2 2 3 3 4 4 3 2 2 2 2 2 2 2 2 2
1 1 2 2 2 2 1 2 1 2 2 2 2 2 2 2 2 2 1 2 1 1 2 2 1 1 1 2 3 2 2 2 3 3 3 3 2 2
0 1 1 1 2 2 3 3 2 1 2 3 2 2 2 2 3 3 2 2 1 1 2 1 1 1 1 3 5 4 3 3 3 3 3 3 3 3
0 0 1 1 1 1 2 2 2 2 2 3 2 2 2 2 3 3 2 3 2 2 2 2 2 1 1 2 7 6 4 4 4 4 4 4 4 4
1 0 1 1 2 3 2 2 2 2 2 1 0 1 0 1 2 2 3 3 3 3 3 3 2 2 2 3 5 7 6 6 5 5 5 6 6 6
2 2 2 1 1 3 2 2 2 1 1 2 2 3 4 4 4 4 4 4 3 2 2 3 3 2 3 3 3 4 5 6 7 6 6 6 6 6
2 1 2 2 0 3 3 2 1 2 2 2 3 3 3 3 4 3 3 4 4 3 1 3 3 3 3 2 2 3 3 3 5 5 6 7 6 6
2 1 2 2 1 3 3 1 3 5 3 2 2 2 2 2 2 2 2 2 3 3 2 2 3 3 4 3 3 2 3 3 3 3 3 6 7 7
1 2 1 3 4 4 4 4 5 4 3 3 2 2 2 1 2 2 3 3 3 3 2 3 4 3 4 4 3 2 3 3 3 3 3 3 4 4
4 4 6 7 6 3 4 5 4 2 3 3 2 2 2 2 2 2 2 3 3 3 3 3 3 4 4 4 4 3 3 3 3 3 3 3 3 4
2 4 4 4 4 3 3 2 3 3 3 3 2 2 2 2 2 2 2 3 3 3 3 3 4 4 4 5 5 4 4 3 3 2 3 4 4 4
4 4 4 3 3 3 3 3 3 3 3 3 3 3 3 3 3 3 3 3 4 4 3 3 3 3 4 3 3 5 4 3 2 3 4 5 4 3
5 4 4 3 3 3 3 3 2 2 2 3 3 3 3 3 3 3 3 4 4 4 4 3 3 4 5 4 3 4 4 3 3 3 3 4 4 3
5 4 3 3 3 3 3 2 2 2 3 3 3 3 3 3 3 3 3 4 4 4 4 3 3 4 5 5 3 2 4 4 3 3 3 3 3 0
4 3 3 3 3 3 2 2 2 2 3 3 3 4 4 3 3 4 4 4 5 5 4 3 1 3 4 4 4 3 1 2 2 3 4 4 3 3
3 3 3 3 3 3 3 3 3 3 3 4 3 3 3 3 4 4 4 4 4 4 5 4 2 3 4 4 4 3 2 2 3 3 3 3 4 4
3 3 3 3 3 3 3 4 4 4 4 4 3 3 3 3 4 4 4 4 4 5 5 4 3 3 3 4 4 3 3 3 2 2 3 5 6 4
Wind_Direction
207 195 216 188 211 214 229 238 248 229 186 165 168 107 97 96 101 114 106 99 101 99 98 97 95 93 90 83 80 78 72 65 65 71 74 78 70 73
243 325 265 211 180 213 229 231 250 253 223 115 131 121 113 116 115 111 95 107 96 93 95 97 97 95 88 86 82 81 82 77 76 78 78 78 83 78
174 162 195 243 208 214 213 211 223 211 174 153 123 115 127 136 135 141 139 136 115 106 93 89 95 98 93 85 76 74 76 78 79 79 79 82 85 85
157 163 182 171 165 235 226 203 171 189 197 170 157 150 151 165 143 162 139 125 110 110 111 103 97 102 105 103 95 82 73 74 83 85 85 88 92 90
107 133 157 167 189 182 211 203 187 179 181 182 171 161 167 155 152 157 135 138 129 129 133 126 113 110 112 110 108 106 106 101 91 94 97 93 91 84
73 70 105 202 203 201 200 205 207 192 187 192 174 168 167 161 187 173 161 159 162 132 121 126 130 134 129 121 108 106 122 146 151 148 142 141 135 119
113 112 81 45 31 7 296 215 204 212 203 194 183 176 173 179 202 209 183 164 149 174 165 159 163 165 155 152 140 119 126 133 137 153 160 150 138 126
158 164 158 144 117 116 53 33 355 248 244 231 217 208 208 208 215 229 208 202 190 181 216 192 191 194 177 132 120 145 157 155 152 146 143 140 137 142
185 254 254 124 183 175 158 166 164 239 265 264 256 259 224 222 227 220 221 235 247 164 224 226 207 219 195 115 135 154 164 166 172 177 175 174 174 179
151 322 311 294 323 276 201 188 198 207 232 232 251 263 258 258 245 235 219 212 211 197 234 249 218 228 222 158 153 166 174 184 190 191 196 201 203 209
182 51 309 294 5 303 226 199 205 194 150 133 210 224 243 250 269 248 223 226 222 199 209 253 234 230 229 207 165 176 188 195 199 202 209 214 219 226
169 159 97 343 343 313 239 213 212 212 189 167 177 199 206 196 215 247 255 251 253 235 183 238 238 237 239 218 198 187 200 203 209 215 221 226 234 247
204 195 117 110 185 301 281 263 257 263 218 209 202 200 199 201 212 224 261 271 271 269 212 222 239 239 249 228 215 211 218 210 206 211 216 221 230 248
241 234 113 146 217 261 259 277 271 260 235 221 224 228 222 210 207 217 237 266 285 291 297 268 264 256 254 251 242 217 227 238 231 227 218 196 216 227
261 56 163 216 225 215 208 230 238 237 239 235 232 234 237 234 232 220 210 220 232 245 241 264 269 266 269 272 268 256 249 240 236 238 234 224 225 219
223 196 205 222 232 230 206 213 226 246 257 253 252 251 245 217 224 237 239 226 228 217 205 224 254 269 266 265 265 261 259 253 232 240 255 255 243 241
241 231 224 212 213 215 217 217 224 222 236 249 251 253 251 246 244 236 244 249 249 245 226 216 218 232 260 275 265 259 253 251 239 226 240 252 246 241
241 233 230 228 227 227 231 226 224 229 241 248 247 248 249 246 244 242 245 252 258 256 251 241 234 232 237 223 256 271 267 259 246 225 242 251 254 240
234 233 229 230 234 232 234 241 244 240 252 252 252 251 253 252 248 246 250 254 256 255 254 249 248 257 261 260 206 233 270 275 270 254 250 260 265 261
239 240 238 239 245 247 241 237 243 241 240 247 251 255 253 253 255 255 255 267 268 266 265 257 255 267 276 289 297 246 225 263 267 268 269 264 269 246
235 238 240 244 244 249 253 249 249 253 259 262 254 253 254 255 260 263 263 248 259 268 272 270 257 239 267 274 271 263 202 198 276 287 282 272 270 261
248 247 241 248 251 251 250 249 246 242 241 247 255 260 262 265 261 262 269 267 261 263 267 268 238 241 253 258 265 269 251 191 193 217 264 279 289 291
246 245 238 229 237 241 245 246 250 248 249 254 257 258 259 258 263 266 267 268 272 272 270 269 262 255 259 261 265 269 264 254 238 215 222 199 206 226